Weather History for Culiacan, Mexico

Change the Weather History Date:

Friday, December 7, 2012

  Actual Average Record
Temperature  
Mean Temperature 72 °F -  
Max Temperature 83 °F 81 °F 89 °F (2000)
Min Temperature 62 °F 55 °F 48 °F (2011)
Cooling Degree Days 8    
Growing Degree Days 22 (Base 50)    
Moisture  
Dew Point 67 °F    
Average Humidity 76    
Maximum Humidity 100    
Minimum Humidity 58    
Precipitation  
Precipitation 0.00 in - - ()
Sea Level Pressure  
Sea Level Pressure 29.87 in    
Wind  
Wind Speed 2 mph ()    
Max Wind Speed 12 mph    
Max Gust Speed -    
Visibility 7.6 miles    
Events Fog    
Averages and records for this station are not official NWS values.
T = Trace of Precipitation, MM = Missing Value Source: Averaged Metar Reports

Daily Weather History Graph

Daily Weather History Graph

Search for Another Location

Airport:

Trip Planner

Search our weather history database for the weather conditions in past years. The results will help you decide how hot, cold, wet, or windy it might be!

Date:

Astronomy

Dec. 07, 2012 Rise Set
Actual Time 6:42 AM MST 5:21 PM MST
Civil Twilight 6:17 AM MST 5:46 PM MST
Nautical Twilight 5:48 AM MST 6:14 PM MST
Astronomical Twilight 5:21 AM MST 6:42 PM MST
Moon 12:38 AM MST (12/7) 12:49 PM MST (12/7)
Length of Visible Light 11h 28m
Length of Day
10h 39m
Last Quarter, 38% of the Moon is Illuminated
Dec 7
Last Quarter
Dec 13
New
Dec 19
First Quarter
Dec 28
Full
Jan 4
Last Quarter

Hourly Weather History & Observations

Time (MST) Temp. Heat Index Dew Point Humidity Pressure Visibility Wind Dir Wind Speed Gust Speed Precip Events Conditions
2:44 AM 64.4 °F - 64.4 °F 100% 29.88 in 6.0 mi Calm Calm - N/A Fog Clear
4:40 AM 68.0 °F - 68.0 °F 100% 29.88 in 1.0 mi Calm Calm - N/A   Mist
5:49 AM 64.4 °F - 62.6 °F 94% 29.88 in 3.0 mi Calm Calm - N/A   Clear
6:40 AM 66.2 °F - 64.4 °F 94% 29.89 in 3.0 mi Calm Calm - N/A   Scattered Clouds
7:43 AM 68.0 °F - 64.4 °F 88% 29.88 in 3.0 mi Calm Calm - N/A   Scattered Clouds
8:45 AM 71.6 °F - 64.4 °F 78% 29.92 in 5.0 mi Calm Calm - N/A   Mostly Cloudy
9:42 AM 77.0 °F - 62.6 °F 61% 29.92 in 8.0 mi Calm Calm - N/A   Mostly Cloudy
10:40 AM 79 °F - 68 °F 60% 29.94 in 10 mi SW 4.5 mph - -   Haze
10:40 AM 80.6 °F 82.3 °F 64.4 °F 58% 29.91 in 8.0 mi Calm Calm - N/A   Mostly Cloudy
11:47 AM 84.2 °F 88.4 °F 69.8 °F 62% 29.87 in 8.0 mi SSE 5.8 mph - N/A   Overcast
12:48 PM 86.0 °F 91.8 °F 71.6 °F 62% 29.84 in 8.0 mi WSW 5.8 mph - N/A   Overcast
1:40 PM 80 °F - 69 °F 62% 29.88 in 10 mi SW 4.5 mph - -   Haze
1:45 PM 86.0 °F 91.8 °F 71.6 °F 62% 29.83 in 8.0 mi WSW 5.8 mph - N/A   Overcast
2:40 PM 84.2 °F 89.6 °F 71.6 °F 66% 29.82 in 10.0 mi Calm Calm - N/A   Overcast
3:42 PM 80.6 °F 83.9 °F 69.8 °F 70% 29.82 in 10.0 mi SSW 11.5 mph - N/A   Overcast
4:40 PM 77 °F - 69 °F 71% 29.89 in 10 mi SW 4.5 mph - -   Haze
4:40 PM 78.8 °F - 71.6 °F 78% 29.82 in 10.0 mi SW 6.9 mph - N/A   Overcast
5:40 PM 77.0 °F - 69.8 °F 78% 29.84 in 10.0 mi WSW 5.8 mph - N/A   Mostly Cloudy
6:41 PM 73.4 °F - 68.0 °F 83% 29.85 in 10.0 mi Calm Calm - N/A   Mostly Cloudy
7:40 PM 71.6 °F - 66.2 °F 83% 29.86 in 10.0 mi Calm Calm - N/A   Mostly Cloudy
8:41 PM 71.6 °F - 66.2 °F 83% 29.88 in 8.0 mi Calm Calm - N/A   Mostly Cloudy
9:40 PM 71.6 °F - 66.2 °F 83% 29.89 in 8.0 mi Calm Calm - N/A   Mostly Cloudy